| time (UTC) | temp C | wind direction | speed KPH | gust KPH | rain 1hr cm | rain 24hr cm | rain mn cm | humidity % | barometer mb |
| 20260504081541 | 10 | 0 | 0.0 | 1.6 | 0.00 | 0.00 | 0.00 | 68 | 1015.7 |
| 20260504044542 | 8 | 0 | 0.0 | 0.0 | 0.00 | 0.00 | 0.00 | 73 | 1015.9 |
| 20260504043039 | 8 | 0 | 0.0 | 0.0 | 0.00 | 0.00 | 0.00 | 77 | 1015.8 |
| 20260504041539 | 8 | 0 | 0.0 | 0.0 | 0.00 | 0.00 | 0.00 | 77 | 1015.9 |
| 20260504040041 | 8 | 0 | 0.0 | 0.0 | 0.00 | 0.00 | 0.00 | 75 | 1016.0 |
| 20260504034551 | 8 | 0 | 0.0 | 0.0 | 0.00 | 0.00 | 0.00 | 73 | 1016.0 |
| 20260504033121 | 8 | 0 | 0.0 | 0.0 | 0.00 | 0.00 | 0.00 | 73 | 1015.7 |
| 20260504031540 | 8 | 0 | 0.0 | 0.0 | 0.00 | 0.00 | 0.00 | 71 | 1015.8 |
| 20260504030042 | 8 | 0 | 0.0 | 0.0 | 0.00 | 0.00 | 0.00 | 70 | 1015.7 |
| 20260504024534 | 8 | 0 | 0.0 | 0.0 | 0.00 | 0.00 | 0.00 | 68 | 1015.7 |
| 20260504023043 | 9 | 0 | 0.0 | 0.0 | 0.00 | 0.00 | 0.00 | 70 | 1015.7 |
| 20260504021541 | 9 | 0 | 0.0 | 0.0 | 0.00 | 0.00 | 0.00 | 69 | 1015.6 |
| 20260504020039 | 10 | 0 | 0.0 | 0.0 | 0.00 | 0.00 | 0.00 | 65 | 1015.6 |
| 20260504014550 | 10 | 0 | 0.0 | 0.0 | 0.00 | 0.00 | 0.00 | 63 | 1015.3 |
| 20260504013035 | 10 | 0 | 0.0 | 0.0 | 0.00 | 0.00 | 0.00 | 64 | 1015.3 |
| 20260504011544 | 11 | 0 | 0.0 | 0.0 | 0.00 | 0.00 | 0.00 | 62 | 1015.1 |
| 20260504010040 | 11 | 0 | 0.0 | 0.0 | 0.00 | 0.00 | 0.00 | 56 | 1015.0 |
| 20260504004542 | 12 | 0 | 0.0 | 0.0 | 0.00 | 0.00 | 0.00 | 56 | 1015.0 |
| 20260504003048 | 12 | 0 | 0.0 | 0.0 | 0.00 | 0.00 | 0.00 | 52 | 1015.0 |
| 20260504001536 | 13 | 0 | 0.0 | 0.0 | 0.00 | 0.00 | 0.00 | 49 | 1014.7 |
| 20260504000037 | 13 | 0 | 0.0 | 0.0 | 0.00 | 0.00 | 0.00 | 46 | 1014.8 |
| 20260503234547 | 15 | 0 | 0.0 | 0.0 | 0.00 | 0.00 | 0.00 | 42 | 1014.6 |
| 20260503233040 | 15 | 0 | 0.0 | 0.0 | 0.00 | 0.00 | 0.00 | 39 | 1014.4 |
| 20260503231541 | 15 | 0 | 0.0 | 0.0 | 0.00 | 0.00 | 0.00 | 37 | 1014.3 |
| 20260503230042 | 16 | 0 | 0.0 | 0.0 | 0.00 | 0.00 | 0.00 | 36 | 1014.3 |
| 20260503224535 | 17 | 0 | 0.0 | 1.6 | 0.00 | 0.00 | 0.00 | 33 | 1014.3 |
| 20260503223035 | 17 | 0 | 0.0 | 4.8 | 0.00 | 0.00 | 0.00 | 32 | 1014.2 |
| 20260503221542 | 18 | 134 | 0.0 | 3.2 | 0.00 | 0.00 | 0.00 | 31 | 1014.3 |
| 20260503220049 | 18 | 0 | 0.0 | 4.8 | 0.00 | 0.00 | 0.00 | 30 | 1014.4 |
| 20260503214541 | 18 | 299 | 0.0 | 6.4 | 0.00 | 0.00 | 0.00 | 30 | 1014.4 |
| 20260503213040 | 19 | 0 | 0.0 | 4.8 | 0.00 | 0.00 | 0.00 | 29 | 1014.5 |
| 20260503211540 | 19 | 0 | 0.0 | 3.2 | 0.00 | 0.00 | 0.00 | 30 | 1014.3 |
| 20260503210038 | 18 | 115 | 0.0 | 3.2 | 0.00 | 0.00 | 0.00 | 31 | 1014.5 |
| 20260503204534 | 18 | 0 | 0.0 | 6.4 | 0.00 | 0.00 | 0.00 | 31 | 1014.3 |
| 20260503203041 | 17 | 0 | 0.0 | 4.8 | 0.00 | 0.00 | 0.00 | 33 | 1014.6 |
| 20260503201541 | 18 | 0 | 0.0 | 3.2 | 0.00 | 0.00 | 0.00 | 30 | 1014.8 |
| 20260503200047 | 18 | 0 | 0.0 | 8.0 | 0.00 | 0.00 | 0.00 | 32 | 1015.2 |
| 20260503194543 | 18 | 0 | 0.0 | 4.8 | 0.00 | 0.00 | 0.00 | 32 | 1015.4 |
| 20260503193046 | 18 | 86 | 0.0 | 3.2 | 0.00 | 0.00 | 0.00 | 33 | 1015.5 |
| 20260503191535 | 17 | 274 | 0.0 | 4.8 | 0.00 | 0.00 | 0.00 | 34 | 1015.6 |
| 20260503190033 | 17 | 0 | 0.0 | 6.4 | 0.00 | 0.00 | 0.00 | 36 | 1015.7 |
| 20260503184627 | 17 | 295 | 1.6 | 11.3 | 0.00 | 0.00 | 0.00 | 32 | 1016.0 |
| 20260503184554 | 17 | 295 | 1.6 | 11.3 | 0.00 | 0.00 | 0.00 | 32 | 1016.0 |
| 20260503183059 | 17 | 0 | 0.0 | 6.4 | 0.00 | 0.00 | 0.00 | 34 | 1016.2 |
| 20260503181538 | 17 | 95 | 0.0 | 4.8 | 0.00 | 0.00 | 0.00 | 34 | 1016.1 |
| 20260503180040 | 17 | 0 | 0.0 | 8.0 | 0.00 | 0.00 | 0.00 | 33 | 1016.2 |
| 20260503174535 | 17 | 0 | 0.0 | 4.8 | 0.00 | 0.00 | 0.00 | 34 | 1016.4 |
| 20260503173047 | 17 | 293 | 0.0 | 8.0 | 0.00 | 0.00 | 0.00 | 38 | 1016.5 |
| 20260503171540 | 16 | 303 | 0.0 | 3.2 | 0.00 | 0.00 | 0.00 | 36 | 1016.6 |